map of MDQ home
Great Circle Mapper logo
MDQ - Airport
Location
City:  Mar del Plata, Buenos Aires, Argentina
ICAO / IATA:SAZM / MDQ

Details
Type:Airport (Aerodrome, Airfield)
Use:Public/Civil, Military
Latitude:3756'03"S (-37.934166)
Longitude:5734'24"W (-57.573332)
Datum:WGS 1984
Elevation:71 ft (22 m)
Variation:7.31W (WMM2015 magnetic declination)
-0.15 annual change
Runways:1
Longest:7218 × 197 ft (2200 × 60 m), paved

Time
Time Zone:UTC-3
Local Time:

Weather
METAR:SAZM 082200Z 09005KT CAVOK 23/21 Q1007
TAF:SAZM 081700Z 0818/0918 16010KT 9999 SCT020 FEW035TCU BKN100 TX28/0918Z TN18/0909Z
BECMG 0819/0821 09010KT 8000 TSRA SCT025 FEW045CB BKN050
TEMPO 0902/0905 34005KT 0800 BCFG SCT010
BECMG 0912/0913 23015KT 9999 SCT025

Related Locations
Nearby:
Farthest:WEH: 12378 mi / 19920 km
Weihai (Wendeng) [Dashuipo], 37, CN

Find:

   beyond  
but within

Other Information
Maps:
NOTAMs:
Links:
Sources:

  
flag of Argentina
flag of Buenos Aires
  

Sectional Chart

Flight Planning
at skyvector.com

Satellite Image

Google Maps Satellite view

 

Copyright © 2004-2016 Karl L. Swartz. All rights reserved.
The Great Circle Mapper name and logo are trademarks of the Great Circle Mapper.
All other trademarks mentioned herein belong to their respective owners.
Please see credits for attibutions and further copyright information.

  Follow gcmap on Facebook Follow gcmap on Twitter Follow gcmap on Google+ GCmap on LinkedIn

hCard Microformat

Geo Microformat